Regional Weather Roundup
Issued by NWS

Home | Current Version | Previous Version | Text Only | Print | Product List | Glossary On
Versions: 1 2 3 4 5 6 7 8 9 10 11 12 13 14 15 16 17 18 19 20 21 22 23 24 25 26 27
000
ASCA42 TJSJ 201710
RWRPR
PUERTO RICO/U.S. VIRGIN ISLANDS HOURLY WEATHER ROUNDUP
NATIONAL WEATHER SERVICE SAN JUAN PR
100 PM AST SAT JAN 20 2018

PRZ001>002-007>008-010-201800-
PUERTO RICO

CITY           SKY/WX    TMP DP  RH WIND       PRES   REMARKS
SAN JUAN LMM   MOSUNNY   82  73  74 E15G23    30.06F
AGUADILLA      PTSUNNY   82  70  65 E18       30.08F
$$

VIZ001>002-201800-
U.S. VIRGIN ISLANDS

CITY           SKY/WX    TMP DP  RH WIND       PRES   REMARKS
CHARLOTTE AMA  MOSUNNY   82  72  69 E12G21    30.06
CHRISTIANSTED  MOSUNNY   84  73  70 E14G25    30.06F HX  91
$$

HOURLY WEATHER ROUNDUP FOR THE NEWS MEDIA

CITY           SKY/WX    TMP DP  RH WIND       PRES   REMARKS
ORLANDO        FAIR      68  48  48 CALM      30.30F
NEW YORK       PTSUNNY   50  26  39 W18       29.88F
NEWARK         PTSUNNY   53  24  32 W21G29    29.87F
CHICAGO        PTSUNNY   41  29  62 SW8       29.93R
HARTFORD       FAIR      50  25  37 W18G24    29.73F
BOSTON         PTSUNNY   45  24  43 W23G31    29.67F
DALLAS         PTSUNNY   62  51  67 S16G25    30.01F
PHILADELPHIA   PTSUNNY   52  28  39 W16       29.95F
LOS ANGELES    PTSUNNY   57  30  35 N15G30    30.03R
WASHINGTON DC  FAIR      56  26  31 SW8       30.01F



USA.gov is the U.S. government's official web portal to all federal, state and local government web resources and services.